Weather History for KTSP - March, 2012

Change the Weather History Date:

Sunday, March 11, 2012

  Actual Average Record
Temperature  
Mean Temperature 46 °F -  
Max Temperature 57 °F 54 °F 66 °F (2013)
Min Temperature 35 °F 35 °F 26 °F (2013)
Degree Days  
Heating Degree Days 19    
Moisture  
Dew Point 31 °F    
Average Humidity 55    
Maximum Humidity 87    
Minimum Humidity 30    
Precipitation  
Precipitation 0.00 in - - ()
Sea Level Pressure  
Sea Level Pressure 30.00 in    
Wind  
Wind Speed 14 mph (NW)    
Max Wind Speed 21 mph    
Max Gust Speed 26 mph    
Visibility 7 miles    
Events      
Averages and records for this station are not official NWS values.
T = Trace of Precipitation, MM = Missing Value Source: NWS Daily Summary

Daily Weather History Graph

Daily Weather History Graph

Search for Another Location

Airport or City:

Trip Planner

Search our weather history database for the weather conditions in past years. The results will help you decide how hot, cold, wet, or windy it might be!

Date:

Astronomy

Mar. 11, 2012 Rise Set
Actual Time 7:09 AM PDT 6:58 PM PDT
Civil Twilight 6:43 AM PDT 7:23 PM PDT
Nautical Twilight 6:14 AM PDT 7:53 PM PDT
Astronomical Twilight 5:45 AM PDT 8:22 PM PDT
Moon 11:15 PM PDT (3/11) 8:59 AM PDT (3/11)
Length of Visible Light 12h 39m
Length of Day
11h 49m
Waning Gibbous, 84% of the Moon is Illuminated
Mar 11
Waning Gibbous
Mar 14
Last Quarter
Mar 22
New
Mar 30
First Quarter
Apr 6
Full

Hourly Weather History & Observations

Time (PDT) Temp. Windchill Dew Point Humidity Pressure Visibility Wind Dir Wind Speed Gust Speed Precip Events Conditions
12:15 AM 50.0 °F - 19.4 °F 30% 30.00 in 8.0 mi West 15.0 mph 21.9 mph N/A   Unknown
12:35 AM 48.2 °F - 21.2 °F 34% 30.00 in 8.0 mi West 15.0 mph 23.0 mph N/A   Unknown
12:55 AM 48.2 °F - 23.0 °F 37% 30.00 in 8.0 mi West 15.0 mph 20.7 mph N/A   Unknown
1:15 AM 46.4 °F 40.4 °F 24.8 °F 43% 30.01 in 7.0 mi West 13.8 mph 21.9 mph N/A   Unknown
1:35 AM 46.4 °F 39.8 °F 28.4 °F 50% 30.01 in 7.0 mi West 16.1 mph 23.0 mph N/A   Unknown
1:55 AM - - - N/A% - - North - - N/A   Unknown
3:15 AM 44.6 °F 38.4 °F 28.4 °F 53% 29.99 in 7.0 mi West 12.7 mph 18.4 mph N/A   Unknown
3:35 AM - - - N/A% - - North - - N/A   Unknown
3:55 AM 42.8 °F 37.0 °F 28.4 °F 57% 29.98 in 7.0 mi WNW 10.4 mph 16.1 mph N/A   Unknown
4:15 AM - - - N/A% - - North - - N/A   Unknown
4:35 AM 39.2 °F 33.0 °F 26.6 °F 61% 29.98 in 7.0 mi West 9.2 mph - N/A   Unknown
5:35 AM 37.4 °F 32.8 °F 26.6 °F 65% 29.98 in 7.0 mi WNW 5.8 mph - N/A   Unknown
5:55 AM - - - N/A% - - North - - N/A   Unknown
6:15 AM 39.2 °F 33.0 °F 26.6 °F 61% 29.99 in 7.0 mi West 9.2 mph - N/A   Unknown
6:35 AM - - - N/A% - - North - - N/A   Unknown
6:55 AM 37.4 °F 32.1 °F 26.6 °F 65% 30.00 in 7.0 mi WNW 6.9 mph - N/A   Unknown
7:15 AM - - - N/A% - - North - - N/A   Unknown
7:35 AM 35.6 °F 28.6 °F 26.6 °F 70% 30.00 in 5.0 mi NW 9.2 mph - N/A   Haze
7:55 AM 39.2 °F 34.2 °F 28.4 °F 65% 30.00 in 5.0 mi NW 6.9 mph - N/A   Haze
8:15 AM - - - N/A% - - North - - N/A   Unknown
8:35 AM 44.6 °F 40.2 °F 28.4 °F 53% 30.01 in 5.0 mi NW 8.1 mph - N/A   Haze
8:55 AM - - - N/A% - 6.0 mi North - - N/A   Haze
9:15 AM - - - N/A% 30.02 in - NW 12.7 mph - N/A   Unknown
9:35 AM 48.2 °F - 28.4 °F 46% 30.03 in 7.0 mi WNW 11.5 mph - N/A   Unknown
9:55 AM 48.2 °F - 28.4 °F 46% 30.03 in 6.0 mi WNW 12.7 mph - N/A   Haze
10:15 AM 50.0 °F - 28.4 °F 43% 30.03 in 7.0 mi NW 12.7 mph - N/A   Unknown
10:35 AM 50.0 °F - 28.4 °F 43% 30.03 in 7.0 mi NW 12.7 mph 18.4 mph N/A   Unknown
10:55 AM 50.0 °F - 28.4 °F 43% 30.04 in 7.0 mi NW 17.3 mph - N/A   Unknown
11:15 AM 50.0 °F - 30.2 °F 47% 30.03 in 7.0 mi NW 17.3 mph 21.9 mph N/A   Unknown
11:35 AM 51.8 °F - 28.4 °F 41% 30.03 in 6.0 mi NW 15.0 mph 24.2 mph N/A   Haze
11:55 AM 53.6 °F - 26.6 °F 35% 30.03 in 7.0 mi NW 15.0 mph 20.7 mph N/A   Unknown
12:15 PM 53.6 °F - 30.2 °F 41% 30.02 in 6.0 mi NW 16.1 mph - N/A   Haze
12:35 PM 55.4 °F - 28.4 °F 36% 30.02 in 7.0 mi NW 15.0 mph 20.7 mph N/A   Unknown
12:55 PM 57.2 °F - 30.2 °F 36% 30.01 in 8.0 mi NW 15.0 mph 21.9 mph N/A   Unknown
1:15 PM 57.2 °F - 28.4 °F 33% 30.00 in 7.0 mi NW 17.3 mph 23.0 mph N/A   Unknown
1:35 PM 57.2 °F - 28.4 °F 33% 30.00 in 7.0 mi NW 16.1 mph 21.9 mph N/A   Unknown
1:55 PM 57.2 °F - 30.2 °F 36% 29.99 in 7.0 mi NW 17.3 mph 21.9 mph N/A   Unknown
2:35 PM 55.4 °F - 32.0 °F 41% 29.98 in 7.0 mi NW 19.6 mph 26.5 mph N/A   Unknown
2:55 PM 55.4 °F - 32.0 °F 41% 29.98 in 7.0 mi NW 20.7 mph 26.5 mph N/A   Unknown
3:15 PM 55.4 °F - 32.0 °F 41% 29.98 in 8.0 mi NW 19.6 mph 24.2 mph N/A   Unknown
3:35 PM 53.6 °F - 30.2 °F 41% 29.98 in 8.0 mi NW 17.3 mph 24.2 mph N/A   Unknown
3:55 PM 53.6 °F - 28.4 °F 38% 29.99 in 8.0 mi NW 18.4 mph 25.3 mph N/A   Unknown
4:35 PM 53.6 °F - 32.0 °F 44% 29.99 in 8.0 mi NW 20.7 mph 26.5 mph N/A   Unknown
4:55 PM 51.8 °F - 33.8 °F 50% 29.99 in 7.0 mi NW 20.7 mph 24.2 mph N/A   Unknown
5:15 PM 51.8 °F - 35.6 °F 54% 29.99 in 7.0 mi NW 20.7 mph 26.5 mph N/A   Unknown
5:35 PM 50.0 °F - 37.4 °F 62% 29.99 in 8.0 mi NW 16.1 mph 21.9 mph N/A   Unknown
5:55 PM 50.0 °F - 37.4 °F 62% 29.99 in 8.0 mi NW 18.4 mph 25.3 mph N/A   Unknown
6:15 PM 48.2 °F - 35.6 °F 62% 29.99 in 7.0 mi NW 15.0 mph 23.0 mph N/A   Unknown
6:35 PM 48.2 °F - 37.4 °F 66% 30.00 in 7.0 mi NW 18.4 mph 24.2 mph N/A   Unknown
6:55 PM 46.4 °F 40.4 °F 35.6 °F 66% 30.00 in 7.0 mi NW 13.8 mph - N/A   Unknown
7:15 PM 46.4 °F 40.4 °F 35.6 °F 66% 30.00 in 7.0 mi WNW 13.8 mph 18.4 mph N/A   Unknown
7:35 PM 44.6 °F 38.1 °F 35.6 °F 71% 30.00 in 9.0 mi WNW 13.8 mph - N/A   Unknown
7:55 PM 44.6 °F 37.4 °F 37.4 °F 76% 30.00 in 8.0 mi NW 16.1 mph 19.6 mph N/A   Unknown
8:15 PM 44.6 °F 37.8 °F 37.4 °F 76% 30.00 in 8.0 mi NW 15.0 mph 19.6 mph N/A   Unknown
8:35 PM 42.8 °F 37.0 °F 37.4 °F 81% 30.01 in 8.0 mi NW 10.4 mph - N/A   Unknown
8:55 PM 41.0 °F 33.5 °F 37.4 °F 87% 30.01 in 8.0 mi NW 13.8 mph 17.3 mph N/A   Unknown
9:15 PM 42.8 °F 36.6 °F 37.4 °F 81% 30.02 in 8.0 mi WNW 11.5 mph - N/A   Unknown
9:35 PM 41.0 °F 35.8 °F 35.6 °F 81% 30.02 in 8.0 mi West 8.1 mph - N/A   Unknown
10:15 PM - - - N/A% - - North - - N/A   Unknown
10:35 PM 39.2 °F 33.0 °F 35.6 °F 87% 30.02 in 8.0 mi WNW 9.2 mph - N/A   Unknown
10:55 PM 41.0 °F 33.5 °F 35.6 °F 81% 30.02 in 8.0 mi WNW 13.8 mph - N/A   Unknown
11:15 PM 41.0 °F 34.7 °F 35.6 °F 81% 30.02 in 8.0 mi WNW 10.4 mph - N/A   Unknown
11:35 PM 41.0 °F 34.3 °F 35.6 °F 81% 30.02 in 9.0 mi NW 11.5 mph - N/A   Unknown
11:55 PM 41.0 °F 34.3 °F 35.6 °F 81% 30.02 in 9.0 mi WNW 11.5 mph - N/A   Unknown
12:15 AM 41.0 °F 34.7 °F 35.6 °F 81% 30.02 in 8.0 mi WNW 10.4 mph - N/A   Unknown
12:35 AM 41.0 °F 34.3 °F 35.6 °F 81% 30.02 in 8.0 mi WNW 11.5 mph - N/A   Unknown
12:55 AM - - - N/A% - - North - - N/A   Unknown